This is the latest recevied weather packets stored in our database for station/object XE2OR-10. If no packets are shown the sender has not sent any weather packets the latest 10 day(s).
| Time | Temp. | Humidity | Pressure | Rain* | Wind** | Luminosity | Snow |
|---|---|---|---|---|---|---|---|
| 1777392229 | 26.67° C | 90% | 1003.4 hPa | 0 mm | - | 138 W/m² | - |
| 1777392086 | 26.67° C | 90% | 1003.3 hPa | 0 mm | - | 123 W/m² | - |
| 1777391632 | 26.67° C | 90% | 1003.3 hPa | 0 mm | - | 123 W/m² | - |
| 1777391329 | 26.11° C | 91% | 1003.4 hPa | 0 mm | - | 149 W/m² | - |
| 1777391032 | 26.11° C | 91% | 1003.5 hPa | 0 mm | - | 108 W/m² | - |
| 1777390729 | 26.11° C | 92% | 1003.4 hPa | 0 mm | - | 106 W/m² | - |
| 1777390429 | 25.56° C | 92% | 1003.5 hPa | 0 mm | - | 62 W/m² | - |
| 1777390129 | 25.56° C | 92% | 1003.3 hPa | 0 mm | - | 73 W/m² | - |
| 1777389832 | 25.56° C | 93% | 1003.3 hPa | 0 mm | - | 68 W/m² | - |
| 1777389529 | 25.56° C | 93% | 1003.4 hPa | 0 mm | - | 57 W/m² | - |
| 1777389232 | 25.56° C | 93% | 1003.4 hPa | 0 mm | - | 50 W/m² | - |
| 1777388929 | 25.56° C | 93% | 1003.5 hPa | 0 mm | - | 44 W/m² | - |
| 1777388629 | 25.56° C | 93% | 1003.3 hPa | 0 mm | - | 62 W/m² | - |
| 1777388329 | 25.56° C | 93% | 1003.5 hPa | 0 mm | - | 47 W/m² | - |
| 1777388033 | 25.56° C | 93% | 1003.2 hPa | 0 mm | - | 67 W/m² | - |
| 1777387730 | 25.56° C | 93% | 1003.2 hPa | 0 mm | - | 72 W/m² | - |
| 1777387432 | 25.56° C | 93% | 1003.3 hPa | 0 mm | - | 65 W/m² | - |
| 1777387129 | 25.56° C | 94% | 1003 hPa | 0 mm | - | 69 W/m² | - |
| 1777386829 | 25.56° C | 94% | 1003.2 hPa | 0 mm | - | 71 W/m² | - |
| 1777386529 | 25° C | 94% | 1003 hPa | 0 mm | - | 64 W/m² | - |
| 1777386233 | 25° C | 94% | 1003.1 hPa | 0 mm | - | 42 W/m² | - |
| 1777385929 | 25° C | 94% | 1003.1 hPa | 0 mm | - | 45 W/m² | - |
| 1777385633 | 25° C | 94% | 1003 hPa | 0 mm | - | 35 W/m² | - |
| 1777385329 | 25° C | 94% | 1003 hPa | 0 mm | - | 25 W/m² | - |
| 1777385029 | 25° C | 94% | 1003.2 hPa | 0 mm | - | 45 W/m² | - |
* Rain latest hour (hover to see other rain measurements)
** Current wind speed in m/s (hover to see current wind gust speed)